sat.trackr.live / text

‹ back to catalog

STARLINK-31277

NORAD 59651 · 2024-082W

PAYLOAD ACTIVE UNKNOWN

§ Identity

Operator
Country
US
Launch date
2024-05-03
Launch site
AFETR
Launch vehicle
Mass (kg)
RCS (m²)

Purposes: comms

External: N2YO · Heavens-Above · Gunter

§ Orbital elements

Epoch: 2026-09-21T22:24:19.990944Z

Period
94.27 min
Inclination
43.0022°
Eccentricity
0.0001172
Mean motion
15.27576205 rev/d
Perigee alt
482.3 km
Apogee alt
483.9 km
Semi-major
6,861.2 km
B*
-2.0264e-7
RAAN
111.6299°
Arg perigee
276.6322°
Mean anomaly
83.4396°
Rev number
13,502

§ Raw data

STARLINK-312771 59651U 24082W   26264.93356471 -.00000268  00000+0 -20264-6 0  99972 59651  43.0022 111.6299 0001172 276.6322  83.4396 15.27576205135021

JSON: /api/v1/satellites/59651 · /tle

For live sub-satellite position, see the globe view (requires WebGL).

§ Visibility from observer

Set your observer location to see the next 7 days of passes ≥ 10°. The values pass through the URL so the page stays shareable.

No JS? Fill the form by hand. The geolocation button needs JavaScript.